• In Spain
  • List of Countries
  • For 7 days
  • Water Temperature
  • Satellite Maps
  • Weather Map
  • Weather Widgets
  • user-avatar
    Login

    Hourly Weather Rawson

    Today, 27 May, Sunday

    Time Temperature Precipitation Wind Pressure Humidity
    00:00 +10°C° 0 mm 3 mps 757 mmHg 38%
    01:00 +10°C° 0 mm 3 mps 757 mmHg 39%
    02:00 +9°C° 0 mm 3 mps 757 mmHg 41%
    03:00 +9°C° 0 mm 3 mps 757 mmHg 41%
    04:00 +9°C° 0 mm 2 mps 758 mmHg 41%
    05:00 +9°C° 0 mm 2 mps 758 mmHg 41%
    06:00 +9°C° 0 mm 2 mps 758 mmHg 40%
    07:00 +9°C° 0 mm 2 mps 757 mmHg 39%
    08:00 +9°C° 0 mm 2 mps 757 mmHg 39%
    09:00 +10°C° 0 mm 3 mps 757 mmHg 38%
    10:00 +12°C° 0 mm 4 mps 757 mmHg 38%
    11:00 +13°C° 0 mm 5 mps 757 mmHg 37%
    12:00 +14°C° 0 mm 5 mps 757 mmHg 36%
    13:00 +15°C° 0 mm 6 mps 756 mmHg 34%
    14:00 +16°C° 0 mm 6 mps 755 mmHg 33%
    15:00 +16°C° 0 mm 5 mps 755 mmHg 36%
    16:00 +15°C° 0 mm 5 mps 754 mmHg 38%
    17:00 +15°C° 0 mm 5 mps 754 mmHg 41%
    18:00 +15°C° 0 mm 6 mps 754 mmHg 43%
    19:00 +15°C° 0 mm 8 mps 753 mmHg 46%
    20:00 +14°C° 0 mm 10 mps 753 mmHg 48%
    21:00 +14°C° 0 mm 10 mps 752 mmHg 48%
    22:00 +14°C° 0 mm 10 mps 752 mmHg 48%
    23:00 +14°C° 0 mm 11 mps 751 mmHg 49%

    Tomorrow, 28 May, Monday

    Time Temperature Precipitation Wind Pressure Humidity
    00:00 +14°C° 0.1 mm 11 mps 751 mmHg 48%
    01:00 +14°C° 0.1 mm 11 mps 750 mmHg 48%
    02:00 +16°C° 0.1 mm 11 mps 750 mmHg 47%
    03:00 +14°C° 0 mm 11 mps 750 mmHg 46%
    04:00 +14°C° 0 mm 10 mps 750 mmHg 45%
    05:00 +13°C° 0 mm 9 mps 750 mmHg 44%
    06:00 +13°C° 0 mm 9 mps 751 mmHg 45%
    07:00 +12°C° 0 mm 8 mps 751 mmHg 46%
    08:00 +12°C° 0 mm 8 mps 751 mmHg 47%
    09:00 +13°C° 0 mm 9 mps 751 mmHg 42%
    10:00 +15°C° 0 mm 9 mps 752 mmHg 37%
    11:00 +16°C° 0 mm 10 mps 752 mmHg 33%
    12:00 +17°C° 0 mm 10 mps 752 mmHg 32%
    13:00 +17°C° 0 mm 9 mps 752 mmHg 31%
    14:00 +17°C° 0 mm 8 mps 752 mmHg 30%
    15:00 +16°C° 0 mm 7 mps 753 mmHg 32%
    16:00 +16°C° 0 mm 5 mps 753 mmHg 33%
    17:00 +15°C° 0 mm 4 mps 753 mmHg 35%
    18:00 +14°C° 0 mm 3 mps 754 mmHg 37%
    19:00 +15°C° 0 mm 2 mps 754 mmHg 39%
    20:00 +14°C° 0 mm 2 mps 755 mmHg 42%
    21:00 +14°C° 0 mm 1 mps 755 mmHg 43%
    22:00 +14°C° 0 mm 1 mps 755 mmHg 45%
    23:00 +13°C° 0 mm 1 mps 755 mmHg 47%

    Day after tomorrow, 29 May, Tuesday

    Time Temperature Precipitation Wind Pressure Humidity
    00:00 +13°C° 0 mm 2 mps 754 mmHg 48%
    01:00 +13°C° 0 mm 2 mps 754 mmHg 50%
    02:00 +12°C° 0 mm 2 mps 754 mmHg 52%
    03:00 +11°C° 0 mm 3 mps 754 mmHg 57%
    04:00 +11°C° 0 mm 3 mps 753 mmHg 61%
    05:00 +10°C° 0 mm 4 mps 753 mmHg 65%
    06:00 +10°C° 0.3 mm 4 mps 753 mmHg 69%
    07:00 +10°C° 0.3 mm 4 mps 753 mmHg 73%
    08:00 +10°C° 0.3 mm 4 mps 753 mmHg 77%
    09:00 +10°C° 0.1 mm 5 mps 753 mmHg 69%
    10:00 +12°C° 0.1 mm 5 mps 754 mmHg 61%
    11:00 +13°C° 0.1 mm 6 mps 754 mmHg 53%
    12:00 +12°C° 0 mm 8 mps 754 mmHg 47%
    13:00 +12°C° 0 mm 9 mps 754 mmHg 42%
    14:00 +13°C° 0 mm 11 mps 754 mmHg 37%
    15:00 +12°C° 0 mm 10 mps 754 mmHg 36%
    16:00 +11°C° 0 mm 10 mps 755 mmHg 35%
    17:00 +10°C° 0 mm 9 mps 755 mmHg 34%
    18:00 +10°C° 0 mm 9 mps 756 mmHg 37%
    19:00 +8°C° 0 mm 9 mps 756 mmHg 39%
    20:00 +9°C° 0 mm 8 mps 757 mmHg 41%
    21:00 +8°C° 0 mm 9 mps 757 mmHg 42%
    22:00 +7°C° 0 mm 9 mps 758 mmHg 43%
    23:00 +7°C° 0 mm 9 mps 758 mmHg 45%

    30 May, Wednesday

    Time Temperature Precipitation Wind Pressure Humidity
    00:00 +7°C° 0 mm 9 mps 759 mmHg 49%
    01:00 +6°C° 0 mm 9 mps 759 mmHg 53%
    02:00 +5°C° 0 mm 10 mps 760 mmHg 57%
    03:00 +5°C° 0.2 mm 10 mps 761 mmHg 59%
    04:00 +4°C° 0.2 mm 11 mps 761 mmHg 60%
    05:00 +3°C° 0.2 mm 12 mps 762 mmHg 62%
    06:00 +3°C° 0.2 mm 11 mps 763 mmHg 58%
    07:00 +2°C° 0.2 mm 10 mps 764 mmHg 55%
    08:00 +2°C° 0.2 mm 9 mps 766 mmHg 52%
    09:00 +3°C° 0 mm 10 mps 766 mmHg 47%
    10:00 +3°C° 0 mm 10 mps 767 mmHg 42%
    11:00 +3°C° 0 mm 10 mps 768 mmHg 37%
    12:00 +5°C° 0 mm 10 mps 768 mmHg 35%
    13:00 +5°C° 0 mm 10 mps 768 mmHg 33%
    14:00 +5°C° 0 mm 10 mps 767 mmHg 31%
    15:00 +5°C° 0 mm 8 mps 768 mmHg 33%
    16:00 +5°C° 0 mm 7 mps 768 mmHg 35%
    17:00 +4°C° 0 mm 6 mps 768 mmHg 38%
    18:00 +4°C° 0 mm 6 mps 768 mmHg 40%
    19:00 +5°C° 0 mm 5 mps 769 mmHg 43%
    20:00 +3°C° 0 mm 5 mps 769 mmHg 45%
    21:00 +4°C° 0 mm 4 mps 769 mmHg 46%
    22:00 +4°C° 0 mm 4 mps 770 mmHg 46%
    23:00 +4°C° 0 mm 4 mps 770 mmHg 47%

    31 May, Thursday

    Time Temperature Precipitation Wind Pressure Humidity
    00:00 +3°C° 0 mm 4 mps 770 mmHg 47%
    01:00 +3°C° 0 mm 4 mps 770 mmHg 47%
    02:00 +3°C° 0 mm 4 mps 770 mmHg 47%
    03:00 +3°C° 0 mm 4 mps 770 mmHg 47%
    04:00 +3°C° 0 mm 4 mps 770 mmHg 48%
    05:00 +1°C° 0 mm 4 mps 770 mmHg 49%
    06:00 +1°C° 0 mm 4 mps 771 mmHg 51%
    07:00 +1°C° 0 mm 4 mps 771 mmHg 52%
    08:00 +1°C° 0 mm 4 mps 771 mmHg 54%
    09:00 +3°C° 0 mm 4 mps 772 mmHg 52%
    10:00 +5°C° 0 mm 4 mps 772 mmHg 49%
    11:00 +6°C° 0 mm 4 mps 772 mmHg 47%
    12:00 +7°C° 0 mm 4 mps 772 mmHg 47%
    13:00 +8°C° 0 mm 3 mps 772 mmHg 46%
    14:00 +9°C° 0 mm 3 mps 772 mmHg 45%
    15:00 +8°C° 0 mm 3 mps 772 mmHg 49%
    16:00 +8°C° 0 mm 2 mps 772 mmHg 53%
    17:00 +7°C° 0 mm 2 mps 772 mmHg 57%
    18:00 +6°C° 0 mm 2 mps 772 mmHg 59%
    19:00 +7°C° 0 mm 1 mps 772 mmHg 62%
    20:00 +6°C° 0 mm 1 mps 772 mmHg 64%
    21:00 +6°C° 0 mm 1 mps 772 mmHg 65%
    22:00 +6°C° 0 mm 1 mps 772 mmHg 66%
    23:00 +5°C° 0 mm 0 mps 772 mmHg 68%

    1 June, Friday

    Time Temperature Precipitation Wind Pressure Humidity
    00:00 +5°C° 0 mm 1 mps 772 mmHg 68%
    01:00 +5°C° 0 mm 1 mps 772 mmHg 68%
    02:00 +5°C° 0 mm 1 mps 772 mmHg 68%
    03:00 +5°C° 0 mm 1 mps 772 mmHg 69%
    04:00 +5°C° 0 mm 1 mps 772 mmHg 69%
    05:00 +4°C° 0 mm 1 mps 772 mmHg 70%
    06:00 +4°C° 0 mm 1 mps 772 mmHg 70%
    07:00 +4°C° 0 mm 1 mps 772 mmHg 70%
    08:00 +4°C° 0 mm 1 mps 772 mmHg 70%
    09:00 +5°C° 0 mm 2 mps 772 mmHg 62%
    10:00 +5°C° 0 mm 3 mps 773 mmHg 54%
    11:00 +8°C° 0 mm 3 mps 773 mmHg 46%
    12:00 +9°C° 0 mm 3 mps 772 mmHg 42%
    13:00 +8°C° 0 mm 4 mps 772 mmHg 38%
    14:00 +10°C° 0 mm 4 mps 772 mmHg 34%
    15:00 +8°C° 0 mm 4 mps 772 mmHg 36%
    16:00 +9°C° 0 mm 3 mps 772 mmHg 37%
    17:00 +8°C° 0 mm 3 mps 771 mmHg 39%
    18:00 +8°C° 0 mm 3 mps 772 mmHg 41%
    19:00 +7°C° 0 mm 3 mps 772 mmHg 43%
    20:00 +7°C° 0 mm 3 mps 772 mmHg 45%
    21:00 +5°C° 0 mm 4 mps 772 mmHg 47%
    22:00 +5°C° 0 mm 4 mps 772 mmHg 49%
    23:00 +5°C° 0 mm 4 mps 772 mmHg 51%
    Show more